Dunkirk, NY

9:00 AM EDT on August 23, 2017 (GMT -0400)
Chautauqua County-Dunkirk

Weather History for KDKK - January, 2014

Change the Weather History Date:

Tuesday, January 7, 2014

  Actual Average Record
Temperature  
Mean Temperature -1 °F -  
Max Temperature 5 °F 33 °F 63 °F (2008)
Min Temperature -7 °F 22 °F -7 °F (2014)
Degree Days  
Heating Degree Days 66    
Moisture  
Dew Point -11 °F    
Average Humidity 64    
Maximum Humidity 87    
Minimum Humidity 55    
Precipitation  
Precipitation 0.00 in - - ()
Sea Level Pressure  
Sea Level Pressure 30.15 in    
Wind  
Wind Speed 23 mph (SW)    
Max Wind Speed 31 mph    
Max Gust Speed 43 mph    
Visibility 3 miles    
Events Fog , Snow    
Averages and records for this station are not official NWS values.
T = Trace of Precipitation, MM = Missing Value Source: NWS Daily Summary

Daily Weather History Graph

Daily Weather History Graph

Search for Another Location

Airport or City:

Trip Planner

Search our weather history database for the weather conditions in past years. The results will help you decide how hot, cold, wet, or windy it might be!

Date:

Astronomy

Jan. 07, 2014 Rise Set
Actual Time 7:46 AM EST 5:00 PM EST
Civil Twilight 7:14 AM EST 5:32 PM EST
Nautical Twilight 6:39 AM EST 6:07 PM EST
Astronomical Twilight 6:05 AM EST 6:41 PM EST
Moon 11:24 AM EST (1/7) No Moon Set
Length of Visible Light 10h 17m
Length of Day
9h 14m
Waxing Crescent, 45% of the Moon is Illuminated
Jan 7
Waxing Crescent
Jan 7
First Quarter
Jan 15
Full
Jan 24
Last Quarter
Jan 30
New

Hourly Weather History & Observations

Time (EST) Temp. Windchill Dew Point Humidity Pressure Visibility Wind Dir Wind Speed Gust Speed Precip Events Conditions
12:53 AM -5.1 °F -33.1 °F -9.0 °F 83% 30.01 in 0.2 mi SW 31.1 mph 40.3 mph 0.00 in Fog , Snow Heavy Snow
1:53 AM -6.0 °F -31.7 °F -9.9 °F 83% 30.04 in 0.2 mi SW 24.2 mph 39.1 mph 0.00 in Fog , Snow Snow
2:15 AM -5.8 °F -29.9 °F -9.4 °F 84% 29.99 in 0.2 mi SSW 20.7 mph 38.0 mph 0.00 in Fog , Snow Snow
2:53 AM -7.1 °F -33.2 °F -9.9 °F 87% 30.08 in 0.2 mi SSW 24.2 mph 35.7 mph 0.00 in Fog , Snow Heavy Snow
3:53 AM -7.1 °F -34.1 °F -11.0 °F 83% 30.10 in 0.2 mi SW 26.5 mph 41.4 mph 0.00 in Fog , Snow Heavy Snow
4:03 AM -7.6 °F -32.3 °F -11.2 °F 84% 30.04 in 0.2 mi SW 20.7 mph 39.1 mph 0.00 in Fog , Snow Snow
4:13 AM -7.6 °F -32.3 °F -11.2 °F 84% 30.05 in 0.5 mi SW 20.7 mph 33.4 mph 0.00 in Fog , Snow Snow
4:53 AM -7.1 °F -31.6 °F -13.0 °F 75% 30.10 in 0.8 mi SW 20.7 mph 32.2 mph 0.00 in Snow Light Snow
5:05 AM -7.6 °F -32.9 °F -14.8 °F 71% 30.04 in 1.0 mi SSW 21.9 mph 32.2 mph 0.00 in Snow Light Snow
5:16 AM -7.6 °F -32.9 °F -14.8 °F 71% 30.05 in 1.8 mi SSW 21.9 mph 34.5 mph 0.00 in Snow Light Snow
5:24 AM -7.6 °F -31.7 °F -16.6 °F 65% 30.04 in 2.5 mi SSW 19.6 mph 34.5 mph 0.00 in Snow Light Snow
5:26 AM -7.6 °F -31.7 °F -16.6 °F 65% 30.04 in 3.0 mi SW 19.6 mph 34.5 mph 0.00 in Snow Light Snow
5:53 AM -6.0 °F -30.7 °F -17.0 °F 59% 30.10 in 8.0 mi SW 21.9 mph 35.7 mph 0.00 in Snow Light Snow
6:47 AM -5.8 °F -31.5 °F -16.6 °F 60% 30.05 in 1.8 mi SSW 24.2 mph 34.5 mph 0.00 in Snow Light Snow
6:53 AM -6.0 °F -30.7 °F -16.1 °F 62% 30.11 in 2.0 mi SSW 21.9 mph 34.5 mph 0.00 in Snow Light Snow
7:02 AM -5.8 °F -28.8 °F -16.6 °F 60% 30.06 in 6.0 mi SSW 18.4 mph 33.4 mph 0.00 in Snow Light Snow
7:42 AM -5.8 °F -31.5 °F -16.6 °F 60% 30.08 in 1.8 mi SW 24.2 mph 38.0 mph 0.00 in Snow Light Snow
7:53 AM -6.0 °F -30.7 °F -16.1 °F 62% 30.14 in 2.0 mi SW 21.9 mph 39.1 mph 0.00 in Snow Light Snow
8:12 AM -5.8 °F -29.4 °F -16.6 °F 60% 30.09 in 3.0 mi SW 19.6 mph 34.5 mph 0.00 in Snow Light Snow
8:14 AM -5.8 °F -29.4 °F -16.6 °F 60% 30.09 in 1.8 mi SW 19.6 mph 34.5 mph 0.00 in Snow Light Snow
8:18 AM -5.8 °F -28.8 °F -16.6 °F 60% 30.09 in 0.8 mi SW 18.4 mph 34.5 mph 0.00 in Snow Light Snow
8:31 AM -5.8 °F -29.4 °F -16.6 °F 60% 30.10 in 1.2 mi SW 19.6 mph 32.2 mph 0.00 in Snow Light Snow
8:42 AM -5.8 °F -31.0 °F -16.6 °F 60% 30.11 in 2.0 mi SW 23.0 mph 29.9 mph 0.00 in Snow Light Snow
8:53 AM -6.0 °F -28.4 °F -16.1 °F 62% 30.17 in 5.0 mi SW 17.3 mph 27.6 mph 0.00 in Snow Light Snow
9:08 AM -5.8 °F -31.5 °F -16.6 °F 60% 30.11 in 2.0 mi SW 24.2 mph 39.1 mph 0.00 in Snow Light Snow
9:15 AM -5.8 °F -31.0 °F -14.8 °F 65% 30.12 in 1.2 mi SW 23.0 mph 39.1 mph 0.00 in Snow Light Snow
9:27 AM -5.8 °F -29.9 °F -16.6 °F 60% 30.12 in 3.0 mi SW 20.7 mph 35.7 mph 0.00 in Snow Light Snow
9:53 AM -4.0 °F -27.6 °F -15.0 °F 59% 30.20 in 4.0 mi SW 20.7 mph 34.5 mph 0.00 in Snow Light Snow
10:11 AM -2.2 °F -27.6 °F -14.8 °F 55% 30.14 in 1.8 mi SW 26.5 mph 39.1 mph 0.00 in Snow Light Snow
10:20 AM -2.2 °F -24.1 °F -14.8 °F 55% 30.14 in 3.0 mi SW 18.4 mph 34.5 mph 0.00 in Snow Light Snow
10:35 AM -2.2 °F -26.7 °F -13.0 °F 60% 30.15 in 1.8 mi SW 24.2 mph 40.3 mph 0.00 in Snow Light Snow
10:53 AM -2.0 °F -27.8 °F -13.0 °F 60% 30.22 in 2.0 mi SW 27.6 mph 38.0 mph 0.00 in Snow Light Snow
11:03 AM -2.2 °F -26.7 °F -13.0 °F 60% 30.15 in 1.8 mi SW 24.2 mph 38.0 mph 0.00 in Snow Light Snow
11:07 AM -0.4 °F -23.3 °F -13.0 °F 55% 30.15 in 2.0 mi SW 21.9 mph 34.5 mph 0.00 in Snow Light Snow
11:21 AM -0.4 °F -25.2 °F -13.0 °F 55% 30.14 in 3.0 mi SW 26.5 mph 40.3 mph 0.00 in Snow Light Snow
11:30 AM -0.4 °F -25.6 °F -11.2 °F 60% 30.14 in 2.0 mi SW 27.6 mph 39.1 mph 0.00 in Snow Light Snow
11:40 AM -0.4 °F -24.7 °F -11.2 °F 60% 30.14 in 3.0 mi SW 25.3 mph 39.1 mph 0.00 in Snow Light Snow
11:53 AM -0.9 °F -25.9 °F -11.9 °F 60% 30.19 in 2.5 mi SW 26.5 mph 36.8 mph 0.00 in Snow Light Snow
12:10 PM -0.4 °F -24.7 °F -11.2 °F 60% 30.13 in 1.8 mi SW 25.3 mph 39.1 mph 0.00 in Snow Light Snow
12:15 PM -0.4 °F -23.3 °F -11.2 °F 60% 30.12 in 2.5 mi SW 21.9 mph 38.0 mph 0.00 in Snow Light Snow
12:22 PM -0.4 °F -25.6 °F -11.2 °F 60% 30.12 in 1.8 mi SW 27.6 mph 40.3 mph 0.00 in Snow Light Snow
12:40 PM -0.4 °F -23.8 °F -9.4 °F 66% 30.13 in 2.0 mi SW 23.0 mph 34.5 mph 0.00 in Snow Light Snow
12:53 PM -0.0 °F -25.9 °F -9.9 °F 63% 30.19 in 1.2 mi SW 29.9 mph 42.6 mph 0.00 in Snow Light Snow
1:07 PM 1.4 °F -22.7 °F -9.4 °F 61% 30.13 in 2.0 mi WSW 26.5 mph 39.1 mph 0.00 in Snow Light Snow
1:16 PM 1.4 °F -21.9 °F -9.4 °F 61% 30.14 in 2.0 mi SW 24.2 mph 36.8 mph 0.00 in Snow Light Snow
1:23 PM 1.4 °F -23.2 °F -9.4 °F 61% 30.14 in 1.2 mi SW 27.6 mph 35.7 mph 0.00 in Snow Light Snow
1:30 PM 1.4 °F -23.5 °F -9.4 °F 61% 30.14 in 0.8 mi SW 28.8 mph 40.3 mph 0.00 in Snow Light Snow
1:53 PM 1.0 °F -23.6 °F -8.0 °F 66% 30.21 in 0.8 mi SW 27.6 mph 41.4 mph 0.00 in Snow Light Snow
2:22 PM 1.4 °F -21.4 °F -7.6 °F 66% 30.15 in 1.2 mi SW 23.0 mph 35.7 mph 0.00 in Snow Light Snow
2:34 PM 1.4 °F -20.5 °F -9.4 °F 61% 30.16 in 3.0 mi SW 20.7 mph 38.0 mph 0.00 in Snow Light Snow
2:53 PM 1.9 °F -21.2 °F -9.0 °F 60% 30.22 in 2.5 mi SW 24.2 mph 33.4 mph 0.00 in Snow Light Snow
3:15 PM 3.2 °F -19.5 °F -7.6 °F 61% 30.16 in 1.8 mi SW 24.2 mph 34.5 mph 0.00 in Snow Light Snow
3:25 PM 1.4 °F -21.4 °F -7.6 °F 66% 30.16 in 2.0 mi SW 23.0 mph 35.7 mph 0.00 in Snow Light Snow
3:32 PM 1.4 °F -22.3 °F -7.6 °F 66% 30.16 in 1.2 mi SW 25.3 mph 34.5 mph 0.00 in Snow Light Snow
3:45 PM 3.2 °F -19.0 °F -7.6 °F 61% 30.16 in 3.0 mi SW 23.0 mph 36.8 mph 0.00 in Snow Light Snow
3:53 PM 3.0 °F -19.3 °F -8.0 °F 60% 30.22 in 2.5 mi SW 23.0 mph 36.8 mph 0.00 in Snow Light Snow
4:02 PM 3.2 °F -20.3 °F -9.4 °F 56% 30.16 in 5.0 mi SW 26.5 mph 35.7 mph 0.00 in Snow Light Snow
4:28 PM 3.2 °F -17.6 °F -9.4 °F 56% 30.17 in 9.0 mi SW 19.6 mph 34.5 mph 0.00 in Snow Light Snow
4:53 PM 3.0 °F -17.3 °F -9.9 °F 55% 30.24 in 9.0 mi SW 18.4 mph 28.8 mph 0.00 in Snow Light Snow
5:53 PM 1.9 °F -18.7 °F -9.9 °F 58% 30.26 in 9.0 mi SW 18.4 mph 31.1 mph 0.00 in Snow Light Snow
6:53 PM 3.0 °F -17.8 °F -9.9 °F 55% 30.28 in 9.0 mi SW 19.6 mph 33.4 mph 0.00 in Snow Light Snow
7:44 PM 3.2 °F -17.6 °F -9.4 °F 56% 30.24 in 9.0 mi SW 19.6 mph 33.4 mph 0.00 in Snow Light Snow
7:53 PM 3.0 °F -14.8 °F -8.0 °F 60% 30.31 in 7.0 mi SW 13.8 mph 31.1 mph 0.00 in Snow Light Snow
8:53 PM 3.0 °F -17.3 °F -8.0 °F 60% 30.32 in 7.0 mi SSW 18.4 mph 33.4 mph 0.00 in Snow Light Snow
9:53 PM 3.9 °F -17.1 °F -8.0 °F 58% 30.34 in 8.0 mi SSW 20.7 mph 34.5 mph 0.00 in Snow Light Snow
10:44 PM 3.2 °F -18.1 °F -7.6 °F 61% 30.28 in 9.0 mi SW 20.7 mph 28.8 mph 0.00 in Snow Light Snow
10:53 PM 3.9 °F -16.1 °F -7.1 °F 60% 30.34 in 6.0 mi SW 18.4 mph 34.5 mph 0.00 in Snow Light Snow
11:12 PM 3.2 °F -18.1 °F -5.8 °F 66% 30.28 in 2.0 mi SW 20.7 mph 33.4 mph 0.00 in Snow Light Snow
11:25 PM 3.2 °F -18.6 °F -4.0 °F 72% 30.28 in 1.2 mi SW 21.9 mph 31.1 mph 0.00 in Snow Light Snow
11:33 PM 5.0 °F -15.2 °F -2.2 °F 72% 30.28 in 1.0 mi SW 19.6 mph 33.4 mph 0.00 in Snow Light Snow
11:42 PM 5.0 °F -14.2 °F -0.4 °F 78% 30.28 in 0.8 mi SW 17.3 mph 28.8 mph 0.00 in Snow Light Snow
11:53 PM 5.0 °F -13.6 °F -0.9 °F 76% 30.35 in 0.8 mi SW 16.1 mph 25.3 mph 0.00 in Snow Light Snow